FW7086 Weather Reports


time (UTC)temp
F
wind
direction
speed
knots
gust
knots
rain 1hr
in
rain 24hr
in
rain mn
in
humidity
%
barometer
mb
20260508145343 60 148 1.7 2.6 0.00 0.00 0.00 58 1012.5
20260508144840 59 219 2.6 5.2 0.00 0.00 0.00 59 1012.6
20260508144338 59 81 1.7 2.6 0.00 0.00 0.00 61 1012.6
20260508143836 58 125 0.9 1.7 0.00 0.00 0.00 64 1012.7
20260508143332 57 162 1.7 1.7 0.00 0.00 0.00 65 1012.7
20260508142829 58 179 0.9 1.7 0.00 0.00 0.00 66 1012.7
20260508142326 58 125 0.9 1.7 0.00 0.00 0.00 69 1012.8
20260508141823 56 63 0.0 0.0 0.00 0.00 0.00 72 1012.8
20260508141320 55 66 0.0 0.0 0.00 0.00 0.00 74 1012.7
20260508140817 55 60 1.7 1.7 0.00 0.00 0.00 73 1012.7
20260508140314 55 14 0.0 0.0 0.00 0.00 0.00 75 1012.9
20260508135810 54 48 0.0 0.9 0.00 0.00 0.00 78 1012.8
20260508135306 53 23 0.0 0.0 0.00 0.00 0.00 78 1012.5
20260508134801 52 78 0.9 0.9 0.00 0.00 0.00 80 1012.8
20260508134259 52 43 1.7 1.7 0.00 0.00 0.00 80 1012.9
20260508133756 52 67 1.7 1.7 0.00 0.00 0.00 80 1012.6
20260508133253 52 44 0.9 0.9 0.00 0.00 0.00 81 1012.7
20260508132751 51 76 1.7 2.6 0.00 0.00 0.00 82 1012.7
20260508132248 51 52 0.9 1.7 0.00 0.00 0.00 82 1012.7
20260508131744 50 56 0.0 0.0 0.00 0.00 0.00 85 1012.6
20260508131240 50 65 0.0 0.0 0.00 0.00 0.00 85 1012.8
20260508130737 51 30 0.0 0.9 0.00 0.00 0.00 84 1012.7
20260508130234 50 30 0.0 0.0 0.00 0.00 0.00 86 1012.6
20260508125730 49 299 0.0 0.0 0.00 0.00 0.00 87 1012.8
20260508125226 48 176 2.6 2.6 0.00 0.00 0.00 88 1012.9
20260508124725 48 186 1.7 1.7 0.00 0.00 0.00 89 1012.9
20260508124222 48 50 0.0 0.0 0.00 0.00 0.00 89 1012.8
20260508123720 48 32 0.0 0.0 0.00 0.00 0.00 89 1012.9
20260508123218 47 35 0.0 0.0 0.00 0.00 0.00 91 1013.0
20260508122713 46 42 0.0 0.0 0.00 0.00 0.00 93 1012.9
20260508122210 46 1 0.0 0.0 0.00 0.00 0.00 95 1012.9
20260508121708 45 15 0.0 0.0 0.00 0.00 0.00 96 1012.9
20260508121206 45 26 0.0 0.0 0.00 0.00 0.00 96 1013.0
20260508120703 44 166 0.0 0.0 0.00 0.00 0.00 97 1013.0
20260508120201 44 166 0.0 0.0 0.00 0.00 0.00 97 1013.0
20260508115659 44 166 0.0 0.0 0.00 0.00 0.00 97 1012.9
20260508115155 44 303 0.0 0.0 0.00 0.00 0.00 98 1012.8
20260508114652 44 30 0.0 0.0 0.00 0.00 0.00 98 1012.8
20260508114149 43 8 0.0 0.0 0.00 0.00 0.00 98 1012.8
20260508113646 43 352 0.0 0.0 0.00 0.00 0.00 98 1012.7
20260508113144 43 352 0.0 0.0 0.00 0.00 0.00 98 1012.7
20260508112640 43 352 0.0 0.0 0.00 0.00 0.00 98 1012.7
20260508112137 42 352 0.0 0.0 0.00 0.00 0.00 98 1012.5
20260508111633 42 6 0.0 0.0 0.00 0.00 0.00 98 1012.6
20260508111131 41 6 0.0 0.0 0.00 0.00 0.00 98 1012.6
20260508110629 41 6 0.0 0.0 0.00 0.00 0.00 98 1012.4
20260508110125 41 165 0.0 0.0 0.00 0.00 0.00 98 1012.7
20260508105625 41 18 0.0 0.0 0.00 0.00 0.00 98 1012.4
20260508105123 40 7 0.0 0.0 0.00 0.00 0.00 98 1012.4
20260508104620 40 350 0.0 0.0 0.00 0.00 0.00 98 1012.3
20260508104117 40 22 0.0 0.0 0.00 0.00 0.00 98 1012.4
20260508103614 40 170 0.0 0.0 0.00 0.00 0.00 98 1012.6
20260508103111 40 170 0.0 0.0 0.00 0.00 0.00 98 1012.5
20260508102609 40 171 0.0 0.0 0.00 0.00 0.00 98 1012.3
20260508102106 40 171 0.0 0.0 0.00 0.00 0.00 98 1012.4
20260508101603 40 173 0.0 0.0 0.00 0.00 0.00 98 1012.4
20260508101101 39 350 0.0 0.0 0.00 0.00 0.00 98 1012.2
20260508100558 40 350 0.0 0.0 0.00 0.00 0.00 98 1012.3
20260508100055 40 349 0.0 0.0 0.00 0.00 0.00 98 1012.4
20260508095552 40 358 0.0 0.0 0.00 0.00 0.00 98 1012.6
20260508095049 39 6 0.0 0.9 0.00 0.00 0.00 97 1012.6
20260508094546 39 171 0.0 0.0 0.00 0.00 0.00 97 1012.6
20260508094043 40 174 0.0 0.0 0.00 0.00 0.00 97 1012.9
20260508093540 40 174 0.0 0.0 0.00 0.00 0.00 97 1012.6
20260508093038 40 192 0.0 0.0 0.00 0.00 0.00 97 1012.6
20260508092535 40 192 0.0 0.0 0.00 0.00 0.00 97 1012.6
20260508092034 40 192 0.0 0.0 0.00 0.00 0.00 97 1012.7
20260508091530 40 192 0.0 0.0 0.00 0.00 0.00 97 1012.7
20260508091027 40 192 0.0 0.0 0.00 0.00 0.00 97 1012.8
20260508090525 40 192 0.0 0.0 0.00 0.00 0.00 97 1012.7
20260508090022 40 192 0.0 0.0 0.00 0.00 0.00 97 1012.8
20260508085518 40 197 0.9 0.9 0.00 0.00 0.00 97 1012.7
20260508085015 41 355 0.0 0.0 0.00 0.00 0.00 97 1012.6
20260508084512 41 355 0.0 0.0 0.00 0.00 0.00 97 1012.6
20260508084010 41 14 0.0 0.0 0.00 0.00 0.00 96 1012.8
20260508083506 41 52 0.0 0.0 0.00 0.00 0.00 96 1012.9
20260508083003 41 9 0.0 0.0 0.00 0.00 0.00 96 1012.9
20260508082459 41 12 0.0 0.0 0.00 0.00 0.00 96 1012.8
20260508081957 41 13 0.0 0.0 0.00 0.00 0.00 96 1012.9
20260508081454 41 14 0.0 0.0 0.00 0.00 0.00 96 1012.9
20260508080949 41 14 0.0 0.0 0.00 0.00 0.00 96 1012.9
20260508080448 41 14 0.0 0.0 0.00 0.00 0.00 95 1013.0
20260508075944 42 14 0.0 0.0 0.00 0.00 0.00 95 1012.9
20260508075441 42 14 0.0 0.0 0.00 0.00 0.00 95 1013.1
20260508074939 42 357 0.0 0.0 0.00 0.00 0.00 95 1013.0
20260508074437 42 352 0.0 0.0 0.00 0.00 0.00 95 1013.0
20260508073933 42 352 0.0 0.0 0.00 0.00 0.00 95 1013.2
20260508073431 43 1 0.0 0.0 0.00 0.00 0.00 95 1013.2
20260508072928 43 352 0.0 0.0 0.00 0.00 0.00 95 1013.1
20260508072424 43 338 0.9 0.9 0.00 0.00 0.00 95 1013.1
20260508071921 43 349 0.0 0.0 0.00 0.00 0.00 94 1013.2
20260508071419 43 346 0.0 0.0 0.00 0.00 0.00 94 1013.1
20260508070911 44 1 0.0 0.0 0.00 0.00 0.00 94 1013.1
20260508070409 44 347 0.0 0.0 0.00 0.00 0.00 94 1013.2
20260508065906 44 1 0.0 0.0 0.00 0.00 0.00 94 1013.2
20260508065404 44 3 0.0 0.0 0.00 0.00 0.00 93 1013.0
20260508064902 44 347 0.0 0.0 0.00 0.00 0.00 93 1013.1
20260508064359 44 349 0.0 0.0 0.00 0.00 0.00 93 1013.1
20260508063857 44 3 0.0 0.0 0.00 0.00 0.00 93 1013.1
20260508063355 44 13 0.0 0.0 0.00 0.00 0.00 92 1013.1
20260508062852 44 167 0.9 0.9 0.00 0.00 0.00 92 1013.2
20260508062349 44 346 0.0 0.0 0.00 0.00 0.00 92 1013.3
20260508061846 44 347 0.0 0.0 0.00 0.00 0.00 92 1013.1
20260508061343 44 351 0.9 0.9 0.00 0.00 0.00 91 1013.1
20260508060840 44 3 0.0 0.0 0.00 0.00 0.00 91 1013.2
20260508060338 45 159 0.0 0.0 0.00 0.00 0.00 91 1012.9
20260508055837 45 345 0.0 0.0 0.00 0.00 0.00 91 1013.0
20260508055336 45 346 0.0 0.0 0.00 0.00 0.00 91 1012.9
20260508054832 45 349 0.0 0.0 0.00 0.00 0.00 90 1012.8
20260508054330 45 345 0.0 0.0 0.00 0.00 0.00 90 1012.8
20260508053826 45 326 0.0 0.0 0.00 0.00 0.00 90 1013.0
20260508053324 45 267 0.0 0.0 0.00 0.00 0.00 91 1012.8
20260508052821 45 355 0.0 0.0 0.00 0.00 0.00 90 1012.9
20260508052318 45 352 0.0 0.0 0.00 0.00 0.00 90 1012.9
20260508051814 46 191 0.0 0.0 0.00 0.00 0.00 89 1012.9
20260508051309 46 171 0.0 0.0 0.00 0.00 0.00 89 1013.0
20260508050806 46 355 0.0 0.0 0.00 0.00 0.00 90 1012.9
20260508050303 46 356 0.0 0.0 0.00 0.00 0.00 90 1012.7
20260508045759 46 356 0.0 0.0 0.00 0.02 0.02 90 1012.6
20260508045257 46 6 0.0 0.0 0.00 0.02 0.02 89 1012.7
20260508044754 46 25 0.0 0.0 0.00 0.02 0.02 89 1012.8
20260508044251 47 137 0.0 0.0 0.00 0.02 0.02 89 1012.8
20260508043747 47 169 0.0 0.9 0.00 0.02 0.02 88 1012.7
20260508043244 47 344 0.0 0.0 0.00 0.02 0.02 88 1012.6
20260508042741 47 344 0.0 0.0 0.00 0.02 0.02 88 1012.5
20260508042239 48 330 0.0 0.0 0.00 0.02 0.02 88 1012.6
20260508041735 48 347 0.0 0.0 0.00 0.02 0.02 87 1012.5
20260508041232 48 337 0.0 0.9 0.00 0.02 0.02 88 1012.4
20260508040728 48 346 0.0 0.0 0.00 0.02 0.02 88 1012.3
20260508040225 48 170 0.0 0.0 0.00 0.02 0.02 88 1012.2
20260508035723 48 161 0.0 0.0 0.00 0.02 0.02 88 1012.4
20260508035220 48 353 0.0 0.0 0.00 0.02 0.02 87 1012.3
20260508034716 48 333 0.0 0.0 0.00 0.02 0.02 87 1012.3
20260508034214 48 232 0.0 0.0 0.00 0.02 0.02 87 1012.2
20260508033711 49 147 0.0 0.0 0.00 0.02 0.02 86 1012.1
20260508033209 49 154 0.0 0.0 0.00 0.02 0.02 86 1012.2
20260508032706 49 158 0.0 0.0 0.00 0.02 0.02 87 1012.3
20260508032203 49 80 0.0 0.0 0.00 0.02 0.02 86 1012.3
20260508031700 50 143 0.0 0.0 0.00 0.02 0.02 86 1012.3
20260508031156 49 172 0.9 0.9 0.00 0.02 0.02 87 1012.4
20260508030653 49 163 0.0 0.9 0.00 0.02 0.02 87 1012.2
20260508030151 49 148 0.0 0.0 0.00 0.02 0.02 87 1012.3
20260508025647 49 80 0.0 0.0 0.00 0.02 0.02 86 1012.3
20260508025144 49 66 0.0 0.0 0.00 0.02 0.02 84 1012.2
20260508024639 49 163 0.0 0.0 0.00 0.02 0.02 83 1012.0
20260508024137 50 163 0.0 0.0 0.00 0.02 0.02 82 1012.1
20260508023633 50 163 0.0 0.0 0.00 0.02 0.02 81 1012.0
20260508023131 51 169 0.0 0.0 0.00 0.02 0.02 81 1012.1
20260508022626 52 179 0.0 0.0 0.00 0.02 0.02 80 1012.0
20260508022124 52 178 0.0 0.9 0.00 0.02 0.02 79 1012.0
20260508021619 52 183 0.9 0.9 0.00 0.02 0.02 78 1012.0
20260508021115 52 158 0.0 0.0 0.00 0.02 0.02 78 1011.8
20260508020614 52 124 0.0 0.0 0.00 0.02 0.02 77 1011.8
20260508020111 51 168 0.9 0.9 0.00 0.02 0.02 78 1011.9
20260508015608 50 153 0.0 0.0 0.00 0.02 0.02 78 1011.8
20260508015105 50 41 0.0 0.0 0.00 0.02 0.02 77 1011.7
20260508014601 51 153 0.0 0.0 0.00 0.02 0.02 76 1011.7
20260508014058 51 136 0.0 0.0 0.00 0.02 0.02 76 1011.5
20260508013554 51 136 0.0 0.0 0.00 0.02 0.02 75 1011.4
20260508013051 51 26 0.0 0.0 0.00 0.02 0.02 74 1011.3
20260508012548 51 41 0.0 0.0 0.00 0.02 0.02 74 1011.5
20260508012045 51 170 0.0 0.0 0.00 0.02 0.02 72 1011.3
20260508011544 52 155 0.0 0.0 0.00 0.02 0.02 71 1011.2
20260508011041 52 155 0.0 0.0 0.00 0.02 0.02 69 1011.0
20260508010537 53 184 0.0 0.0 0.00 0.02 0.02 67 1011.0
20260508010035 54 184 0.0 0.0 0.00 0.02 0.02 65 1011.2
20260508005531 55 161 0.0 0.0 0.00 0.02 0.02 63 1011.0
20260508005028 55 170 0.0 0.0 0.00 0.02 0.02 61 1011.2
20260508004524 56 170 0.0 0.0 0.00 0.02 0.02 60 1010.9
20260508004021 56 215 0.0 0.9 0.00 0.02 0.02 59 1011.2
20260508003517 56 186 0.0 0.0 0.00 0.02 0.02 59 1011.2
20260508003015 57 189 0.9 0.9 0.00 0.02 0.02 58 1011.0
20260508002511 57 153 0.9 1.7 0.00 0.02 0.02 58 1010.9
20260508002008 57 186 0.9 1.7 0.00 0.02 0.02 58 1010.8
20260508001504 57 195 0.9 0.9 0.00 0.02 0.02 58 1011.0
20260508001001 57 295 0.0 0.0 0.00 0.02 0.02 58 1011.0
20260508000457 58 218 1.7 2.6 0.00 0.02 0.02 56 1010.9
20260507235953 58 232 0.9 0.9 0.00 0.02 0.02 56 1010.8
20260507235445 58 166 0.9 1.7 0.00 0.02 0.02 56 1010.8
20260507234942 58 132 0.9 1.7 0.00 0.02 0.02 56 1010.8
20260507234438 58 227 2.6 3.5 0.00 0.02 0.02 56 1010.7
20260507233935 58 172 0.0 0.9 0.00 0.02 0.02 57 1010.8
20260507233432 58 201 1.7 1.7 0.00 0.02 0.02 57 1010.8
20260507232930 57 168 0.9 0.9 0.00 0.02 0.02 59 1011.0
20260507232426 57 174 2.6 2.6 0.00 0.02 0.02 61 1011.0
20260507231924 57 231 0.9 1.7 0.00 0.02 0.02 64 1010.8
20260507231420 57 169 1.7 2.6 0.00 0.02 0.02 65 1010.9
20260507230916 56 187 2.6 2.6 0.00 0.02 0.02 66 1011.2
20260507230414 56 219 2.6 3.5 0.00 0.02 0.02 67 1011.2
20260507225914 56 219 3.5 3.5 0.00 0.02 0.02 67 1011.4
20260507225410 56 158 3.5 3.5 0.00 0.02 0.02 68 1011.4
20260507224907 55 168 3.5 5.2 0.00 0.02 0.02 68 1011.5
20260507224403 55 177 0.0 0.9 0.00 0.02 0.02 68 1011.4
20260507223900 56 182 4.3 5.2 0.00 0.02 0.02 65 1011.5
20260507223356 56 146 2.6 2.6 0.00 0.02 0.02 63 1011.5
20260507222853 55 236 0.9 0.9 0.00 0.02 0.02 63 1011.8
20260507222349 55 187 0.9 0.9 0.00 0.02 0.02 66 1011.6
20260507221846 55 273 0.9 0.9 0.00 0.02 0.02 70 1011.9
20260507221343 52 269 1.7 2.6 0.00 0.02 0.02 72 1012.1
20260507220838 51 303 3.5 5.2 0.00 0.02 0.02 74 1012.1
20260507220337 51 284 0.9 1.7 0.00 0.02 0.02 78 1012.7
20260507215833 51 345 0.9 0.9 0.00 0.02 0.02 80 1012.3
20260507215331 51 297 2.6 2.6 0.00 0.02 0.02 81 1012.2
20260507214828 51 326 1.7 1.7 0.05 0.02 0.02 81 1012.2
20260507214326 51 343 3.5 5.2 0.05 0.02 0.02 80 1012.2
20260507213825 51 7 2.6 2.6 0.07 0.01 0.01 79 1012.0
20260507213323 52 47 1.7 1.7 0.07 0.01 0.01 76 1011.9
20260507212819 53 332 7.8 11.3 0.00 0.00 0.00 70 1012.2
20260507212315 55 309 2.6 3.5 0.00 0.00 0.00 63 1011.9
20260507211812 58 357 4.3 7.8 0.00 0.00 0.00 49 1012.0
20260507211309 59 354 1.7 1.7 0.00 0.00 0.00 51 1011.7
20260507210806 59 1 1.7 1.7 0.00 0.00 0.00 51 1011.3
20260507210302 59 228 3.5 6.1 0.00 0.00 0.00 50 1011.4
20260507205759 58 206 3.5 5.2 0.00 0.00 0.00 51 1011.5
20260507205256 59 178 1.7 3.5 0.00 0.00 0.00 51 1011.4
20260507204752 59 203 0.9 2.6 0.00 0.00 0.00 51 1011.5
20260507204250 60 200 4.3 6.1 0.00 0.00 0.00 50 1011.3
20260507203747 61 187 3.5 3.5 0.00 0.00 0.00 48 1011.2
20260507203245 60 341 0.9 0.9 0.00 0.00 0.00 49 1011.3
20260507202741 61 211 2.6 3.5 0.00 0.00 0.00 47 1011.5
20260507202237 60 282 3.5 6.1 0.00 0.00 0.00 49 1011.6
20260507201732 61 283 4.3 5.2 0.00 0.00 0.00 48 1011.7
20260507201229 60 164 5.2 8.7 0.00 0.00 0.00 50 1012.0
20260507200725 60 213 5.2 7.0 0.00 0.00 0.00 49 1011.9
20260507200221 60 63 1.7 2.6 0.00 0.00 0.00 49 1012.0
20260507195718 60 271 2.6 3.5 0.00 0.00 0.00 49 1012.2
20260507195215 60 159 7.0 12.2 0.00 0.00 0.00 48 1012.2
20260507194712 59 169 3.5 5.2 0.00 0.00 0.00 50 1012.2
20260507194208 59 205 2.6 3.5 0.00 0.00 0.00 50 1012.3
20260507193705 61 221 4.3 7.8 0.00 0.00 0.00 47 1012.5
20260507193202 59 189 4.3 6.1 0.00 0.00 0.00 49 1012.5
20260507192658 59 237 6.1 8.7 0.00 0.00 0.00 47 1012.5
20260507192155 60 148 5.2 7.0 0.00 0.00 0.00 46 1012.7
20260507191650 60 200 9.6 13.9 0.00 0.00 0.00 45 1012.7
20260507191148 59 226 5.2 7.0 0.00 0.00 0.00 43 1012.9
20260507190645 60 160 6.1 7.8 0.00 0.00 0.00 42 1012.6
20260507190144 61 207 8.7 13.0 0.00 0.00 0.00 41 1012.7
20260507185642 60 191 7.8 12.2 0.00 0.00 0.00 40 1012.6
20260507185138 60 197 3.5 5.2 0.00 0.00 0.00 40 1012.9
20260507184636 60 11 5.2 8.7 0.00 0.00 0.00 39 1012.9
20260507184134 60 313 4.3 6.1 0.00 0.00 0.00 40 1012.7
20260507183629 61 188 5.2 6.1 0.00 0.00 0.00 38 1013.2
20260507183126 59 192 3.5 3.5 0.00 0.00 0.00 38 1013.0
20260507182623 60 181 7.8 11.3 0.00 0.00 0.00 37 1013.2
20260507182119 59 209 3.5 5.2 0.00 0.00 0.00 38 1013.2
20260507181616 60 206 2.6 2.6 0.00 0.00 0.00 38 1013.0
20260507181112 59 219 3.5 5.2 0.00 0.00 0.00 38 1013.2
20260507180609 59 168 2.6 3.5 0.00 0.00 0.00 38 1013.5
20260507180106 59 286 2.6 5.2 0.00 0.00 0.00 39 1013.5
20260507175602 59 216 7.8 11.3 0.00 0.00 0.00 38 1013.7
20260507175059 60 188 7.0 7.8 0.00 0.00 0.00 37 1013.9
20260507174556 60 181 4.3 6.1 0.00 0.00 0.00 36 1014.0
20260507174054 59 231 3.5 7.0 0.00 0.00 0.00 37 1014.0
20260507173551 59 166 7.0 7.8 0.00 0.00 0.00 36 1013.9
20260507173048 60 258 9.6 12.2 0.00 0.00 0.00 35 1014.1
20260507172544 60 212 3.5 5.2 0.00 0.00 0.00 39 1014.3
20260507172041 60 186 2.6 2.6 0.00 0.00 0.00 37 1014.3
20260507171536 58 148 5.2 7.8 0.00 0.00 0.00 38 1014.4
20260507171034 59 190 3.5 3.5 0.00 0.00 0.00 37 1014.5
20260507170530 58 192 4.3 6.1 0.00 0.00 0.00 37 1014.6
20260507170027 58 219 2.6 3.5 0.00 0.00 0.00 36 1014.7
20260507165523 57 263 4.3 7.0 0.00 0.00 0.00 37 1015.0
20260507165020 58 171 1.7 2.6 0.00 0.00 0.00 38 1014.7
20260507164516 58 197 3.5 5.2 0.00 0.00 0.00 37 1014.9
20260507164013 58 230 3.5 3.5 0.00 0.00 0.00 36 1014.9
20260507163510 56 239 0.9 1.7 0.00 0.00 0.00 38 1015.1
20260507163008 56 186 2.6 5.2 0.00 0.00 0.00 37 1015.4
20260507162503 56 259 2.6 2.6 0.00 0.00 0.00 38 1015.4
20260507162000 56 193 2.6 3.5 0.00 0.00 0.00 38 1015.3
20260507161456 56 223 3.5 5.2 0.00 0.00 0.00 37 1015.4
20260507160953 56 205 3.5 5.2 0.00 0.00 0.00 37 1015.6
20260507160449 56 206 7.0 8.7 0.00 0.00 0.00 38 1015.6
20260507155944 55 118 0.9 0.9 0.00 0.00 0.00 39 1015.9
20260507155441 56 240 0.9 0.9 0.00 0.00 0.00 39 1015.9
20260507154938 55 302 0.9 0.9 0.00 0.00 0.00 41 1015.9
20260507154435 55 79 0.9 1.7 0.00 0.00 0.00 38 1015.9
20260507153932 55 242 1.7 1.7 0.00 0.00 0.00 40 1016.0
20260507153429 53 159 3.5 3.5 0.00 0.00 0.00 40 1016.1
20260507152925 53 6 0.0 0.0 0.00 0.00 0.00 42 1016.3
20260507152421 54 19 1.7 2.6 0.00 0.00 0.00 41 1016.2
20260507151917 54 177 1.7 2.6 0.00 0.00 0.00 41 1016.3
20260507151414 53 48 1.7 1.7 0.00 0.00 0.00 41 1016.3
20260507150911 53 233 0.9 1.7 0.00 0.00 0.00 42 1016.3
20260507150408 52 234 1.7 1.7 0.00 0.00 0.00 42 1016.5
20260507145904 54 196 0.9 0.9 0.00 0.00 0.00 41 1016.4